Location: *
(40.7873°S, 98.7174°E)
Time: 12:30:41
(UTC+00:00)

Kosmos-1816 - Pass Details

Date: 18 June 2024
Orbit: 959 x 1007 km, 82.9° (Epoch: 23 July)

Event Time Altitude Azimuth Distance (km) Brightness Sun altitude
Rises 14:21:14 0° 206° (SSW) 3,765 9.4 -47.7°
Reaches altitude 10° 14:24:54 10° 226° (SW) 2,799 8.8 -48.4°
Enters shadow 14:26:45 14° 242° (WSW) 2,499 8.5 -48.7°
Exits shadow 14:34:33 - 310° (NW) 3,399 9.1 -50.2°
Sets 14:35:34 0° 315° (NW) 3,694 9.3 -50.4°
